Wind_Speed
29 30 30 31 31 32 33 34 34 35 36 37 37 38 39 39 38 36 33 29 29 34 40 43 44 45 45 44 43 41 41 42 45 49 52 52 51 51 51 51 52 52
30 32 32 32 32 33 34 35 36 36 38 39 40 40 41 42 41 39 36 35 39 45 48 49 48 48 47 47 46 45 43 44 46 49 52 53 52 53 53 54 55 54
32 33 33 33 33 34 35 36 37 38 39 41 41 42 43 45 44 42 40 40 44 47 49 49 49 48 46 46 47 46 45 46 47 49 51 51 52 54 56 57 57 56
35 35 34 34 35 36 37 38 39 39 41 42 44 45 46 46 45 42 41 41 43 45 46 47 48 46 44 44 45 46 46 47 47 48 48 49 51 55 58 59 59 58
36 36 35 36 37 38 39 40 40 41 42 44 45 46 47 46 43 42 41 43 45 45 45 46 46 45 45 46 48 48 47 48 48 48 48 47 50 56 60 60 60 59
38 37 37 38 39 40 41 42 42 43 43 45 46 48 48 48 46 46 46 47 48 47 46 47 47 47 49 51 52 51 50 50 50 49 48 47 50 57 61 61 61 59
39 39 39 40 42 42 43 44 44 44 45 46 48 49 50 50 49 49 48 47 47 47 47 48 49 49 51 53 54 53 53 52 52 51 50 48 51 57 60 60 61 60
41 41 42 43 44 45 45 46 46 47 47 48 50 51 52 51 50 49 48 47 46 46 47 48 50 50 52 53 53 53 53 53 53 53 52 51 53 56 57 59 61 62
43 44 44 45 46 46 46 48 48 48 49 50 51 53 53 52 51 50 49 47 46 46 47 48 49 50 51 52 53 53 54 53 53 52 51 51 52 54 56 60 62 63
45 46 46 47 48 48 49 50 50 50 51 51 53 55 55 54 52 51 49 47 46 46 46 47 48 50 51 52 53 54 55 54 52 50 48 50 53 55 57 59 60 59
48 48 49 49 49 49 51 52 53 53 53 53 54 56 56 55 53 51 49 48 47 46 47 48 50 52 53 54 55 56 55 55 54 52 52 53 55 56 56 56 56 57
50 51 51 51 51 51 52 54 54 55 55 56 56 56 57 56 54 52 50 49 48 48 49 50 52 53 54 55 57 57 57 57 56 55 55 55 55 54 54 53 54 56
53 53 54 53 53 53 54 55 56 57 57 58 57 57 57 56 54 53 51 50 50 50 51 53 54 56 57 57 56 57 59 59 58 57 56 55 55 55 55 55 57 60
55 56 56 56 56 56 56 57 58 58 59 59 58 57 57 56 55 53 52 52 52 53 54 56 57 57 57 56 56 60 62 60 57 56 57 58 58 59 59 59 60 62
57 58 58 59 59 59 58 58 59 60 60 59 59 57 56 56 55 54 54 54 54 55 56 57 57 57 57 58 61 63 62 57 54 57 60 61 62 63 63 63 64 65
59 59 60 60 61 61 61 61 61 61 61 60 59 58 56 56 55 55 55 55 55 57 58 58 59 58 58 61 62 61 57 54 56 61 64 65 67 68 67 67 66 66
61 61 61 61 61 62 62 63 63 63 62 61 60 58 57 57 56 55 55 56 57 59 59 60 61 60 60 61 60 58 56 57 61 66 67 69 71 70 69 68 67 66
64 64 64 63 62 62 63 64 64 64 63 62 60 58 58 57 57 56 56 57 59 60 61 63 63 62 61 60 58 58 60 62 66 69 70 71 71 69 68 67 66 66
66 66 66 65 65 64 64 64 64 64 63 61 60 59 58 58 58 58 58 59 61 62 64 64 63 61 59 57 58 60 63 65 68 70 70 71 70 68 66 65 64 65
68 67 67 67 66 66 66 65 65 64 63 62 60 59 59 59 59 60 61 62 62 62 65 65 61 59 58 59 61 63 65 67 69 69 69 69 68 66 65 64 64 65
69 69 68 68 67 67 67 67 66 65 64 62 61 60 60 60 61 61 62 63 62 63 65 63 59 59 63 64 64 64 65 67 68 68 68 67 66 64 64 64 65 66
71 70 70 69 68 68 68 68 67 66 65 64 62 61 60 61 63 63 64 65 64 63 62 59 59 63 66 65 66 66 65 66 67 67 66 64 62 62 64 65 67 68
73 72 71 70 69 69 69 68 67 67 66 65 64 63 62 62 64 65 65 66 66 65 65 63 62 64 64 64 66 66 64 65 66 64 60 59 60 62 65 67 69 72
75 74 73 72 71 70 69 68 68 67 66 66 66 65 64 64 65 67 67 66 67 68 67 62 59 62 66 66 66 64 63 63 60 57 57 58 60 64 69 71 74 75
78 76 75 74 72 71 70 69 69 68 68 67 67 66 66 65 66 68 69 68 69 68 64 60 61 67 70 68 65 65 64 59 52 50 56 61 64 68 72 75 77 78
80 78 76 74 73 72 71 70 70 69 68 68 68 68 68 68 67 69 70 71 71 68 65 65 69 71 70 68 69 70 67 58 50 50 55 60 65 70 73 76 79 81
Wind_Direction
318 317 314 313 315 318 321 321 320 320 319 319 320 321 323 324 327 328 322 317 318 318 316 316 316 315 314 312 310 311 312 313 313 314 315 315 313 313 313 313 315 317
315 312 311 313 316 318 319 318 318 318 318 318 319 321 323 323 324 325 320 314 313 313 312 313 314 314 312 311 311 311 311 311 312 314 315 313 311 310 310 311 313 315
310 308 310 314 317 317 316 315 315 316 316 317 319 321 322 322 322 320 316 311 310 310 311 312 313 313 312 310 311 312 312 312 312 313 313 311 308 307 307 308 312 313
306 307 311 315 315 314 313 313 313 315 315 316 319 320 321 321 320 318 315 314 314 315 315 314 314 314 313 313 315 316 316 314 312 313 313 310 305 303 304 307 310 312
305 308 313 314 312 311 310 311 312 313 315 317 318 318 319 320 319 317 315 315 316 317 316 315 315 314 314 315 317 317 316 314 312 312 312 310 304 301 302 305 307 310
305 309 312 311 309 308 308 309 311 313 315 315 316 316 317 318 317 315 314 314 314 315 313 313 313 312 312 313 314 315 314 312 311 310 310 309 303 299 301 304 306 309
306 308 309 308 307 306 306 308 310 311 313 314 314 315 315 316 316 314 314 314 313 313 312 311 311 310 309 310 312 312 310 308 308 306 307 306 302 299 301 303 304 307
305 305 305 305 304 304 306 307 309 310 311 312 313 314 314 314 314 314 314 314 313 313 311 310 309 309 308 309 309 309 307 306 305 303 303 303 300 299 300 301 303 305
303 303 303 303 303 304 306 307 307 308 310 311 312 312 313 313 314 313 313 313 313 312 311 309 308 308 308 308 309 309 307 306 304 302 301 299 298 298 299 301 302 303
300 300 301 301 302 304 305 305 306 307 309 310 311 312 312 313 313 312 311 310 311 310 310 309 309 309 309 310 311 311 310 308 305 304 302 298 297 298 300 301 301 301
298 299 299 300 301 303 304 304 306 307 309 310 311 312 312 312 311 310 310 310 310 310 310 310 311 312 312 312 312 312 311 310 308 306 304 301 300 302 303 302 301 299
297 297 298 299 301 301 303 304 306 307 309 310 311 311 311 311 310 309 309 309 310 311 311 311 312 312 312 312 311 311 311 310 308 306 305 304 305 306 304 301 297 296
296 297 298 299 300 301 302 304 305 307 309 310 310 310 310 309 309 308 308 308 310 311 311 312 312 312 311 311 310 310 311 309 307 306 306 305 304 302 299 296 293 293
296 297 298 299 300 301 303 304 305 306 307 308 309 309 308 307 307 307 307 308 309 311 311 313 314 313 312 311 310 310 310 307 305 305 304 302 300 299 297 295 294 293
295 296 298 299 301 302 302 303 304 304 306 307 307 307 306 306 306 306 306 308 309 310 312 315 314 312 311 312 311 310 309 304 303 304 304 303 302 301 299 297 296 296
294 295 297 298 300 301 301 302 303 304 305 306 306 306 305 305 304 305 306 307 309 311 313 315 313 309 309 312 312 311 307 304 303 305 306 305 304 303 300 299 298 298
293 294 294 295 297 298 300 301 303 304 305 305 305 305 305 304 304 304 305 307 309 311 312 313 312 310 311 313 313 310 306 304 304 305 304 304 304 303 301 300 299 299
292 293 293 294 295 297 298 300 302 303 304 305 304 304 304 304 303 304 305 306 308 310 312 313 313 311 310 310 310 307 303 302 303 303 302 303 303 301 300 299 298 299
291 291 292 294 295 296 297 299 300 302 303 303 303 304 303 303 303 304 305 306 308 310 312 312 311 311 309 306 306 305 302 302 302 302 302 302 301 300 299 298 298 299
288 289 291 292 294 296 297 298 300 301 301 302 302 302 302 302 303 304 304 307 309 311 312 311 309 309 308 305 305 305 303 302 302 302 303 302 301 299 298 298 299 300
287 289 290 292 294 296 298 299 300 300 301 301 301 302 302 302 303 304 305 307 309 310 312 309 306 306 306 305 304 305 305 304 304 304 304 303 300 299 297 297 299 301
288 289 291 293 295 297 298 299 300 300 301 301 301 302 302 302 304 305 306 308 308 309 310 307 303 303 304 303 305 307 307 306 305 305 304 301 298 296 295 296 300 302
288 290 292 294 295 296 297 298 299 300 300 301 301 302 303 304 305 306 307 308 308 308 309 307 305 303 302 302 306 308 307 306 306 305 301 298 296 294 294 297 301 302
290 291 292 294 295 296 297 298 298 299 299 300 301 302 303 305 305 305 306 306 306 307 308 307 303 300 301 303 306 307 306 306 306 303 299 296 294 293 294 297 299 300
290 292 293 294 295 296 297 298 298 299 299 300 301 302 303 304 304 305 304 305 306 306 306 303 300 300 303 306 306 306 305 303 301 298 294 292 292 292 293 296 297 297
290 291 293 294 295 296 297 297 298 299 300 301 301 302 303 303 303 304 304 305 307 307 304 304 304 305 307 307 305 305 303 298 291 286 283 285 289 290 292 293 294 295
Height
10963 10961 10959 10958 10958 10957 10956 10954 10952 10950 10948 10946 10944 10942 10940 10938 10936 10934 10932 10930 10927 10926 10924 10922 10920 10918 10916 10913 10911 10909 10907 10904 10901 10897 10894 10892 10889 10887 10886 10884 10882 10880
10960 10958 10957 10956 10956 10955 10953 10951 10949 10947 10945 10943 10941 10939 10938 10935 10933 10931 10929 10927 10924 10922 10920 10918 10916 10914 10911 10908 10906 10904 10903 10900 10897 10894 10890 10887 10885 10882 10880 10879 10877 10875
10956 10955 10954 10954 10954 10952 10950 10947 10946 10944 10942 10940 10938 10936 10935 10933 10930 10928 10927 10924 10922 10918 10915 10912 10910 10908 10907 10904 10902 10900 10898 10896 10894 10891 10888 10884 10881 10877 10875 10874 10872 10870
10952 10952 10952 10952 10950 10948 10946 10944 10943 10941 10939 10937 10935 10933 10931 10929 10927 10925 10923 10921 10918 10915 10912 10909 10906 10904 10902 10900 10898 10896 10894 10892 10890 10888 10885 10882 10878 10874 10871 10869 10867 10865
10949 10949 10950 10948 10946 10944 10942 10940 10939 10938 10936 10933 10931 10929 10927 10925 10923 10921 10919 10917 10915 10912 10909 10906 10903 10900 10898 10896 10894 10892 10890 10888 10886 10884 10882 10879 10874 10869 10866 10865 10862 10860
10946 10946 10946 10944 10942 10940 10938 10936 10935 10934 10933 10930 10927 10925 10922 10921 10919 10916 10914 10912 10910 10908 10905 10902 10900 10897 10894 10892 10889 10887 10885 10883 10881 10879 10877 10875 10871 10865 10861 10860 10858 10855
10943 10943 10942 10940 10938 10936 10934 10933 10931 10930 10929 10927 10924 10921 10918 10916 10914 10911 10909 10907 10904 10902 10900 10897 10896 10894 10891 10888 10885 10883 10880 10878 10876 10874 10873 10871 10866 10860 10857 10855 10852 10850
10940 10938 10937 10936 10933 10932 10930 10929 10927 10926 10925 10923 10920 10916 10914 10912 10909 10907 10904 10902 10900 10897 10895 10892 10890 10888 10886 10883 10880 10878 10875 10873 10871 10869 10867 10865 10861 10856 10853 10850 10847 10845
10935 10934 10933 10931 10929 10928 10927 10924 10923 10922 10921 10918 10915 10912 10909 10907 10904 10902 10899 10897 10895 10893 10890 10888 10885 10883 10881 10878 10876 10873 10870 10868 10865 10863 10862 10859 10855 10852 10849 10846 10843 10840
10930 10929 10928 10926 10925 10924 10922 10919 10918 10917 10916 10914 10910 10906 10904 10902 10899 10897 10895 10893 10891 10889 10886 10883 10881 10878 10876 10873 10871 10868 10865 10862 10859 10857 10855 10853 10850 10847 10845 10841 10838 10835
10926 10925 10923 10922 10921 10920 10917 10914 10912 10911 10910 10908 10906 10901 10898 10896 10894 10891 10889 10888 10886 10884 10881 10878 10875 10873 10870 10868 10865 10862 10859 10856 10854 10851 10849 10847 10844 10841 10838 10835 10832 10829
10921 10919 10918 10917 10917 10915 10912 10909 10907 10905 10903 10902 10900 10897 10893 10890 10888 10886 10884 10882 10880 10879 10876 10873 10870 10867 10865 10862 10859 10856 10853 10850 10847 10845 10843 10840 10837 10834 10832 10829 10826 10823
10915 10913 10912 10912 10911 10909 10907 10904 10901 10900 10898 10896 10894 10892 10888 10885 10882 10880 10878 10876 10874 10872 10870 10867 10864 10862 10859 10856 10853 10849 10846 10843 10841 10838 10836 10834 10831 10829 10827 10824 10821 10818
10909 10907 10906 10905 10905 10904 10902 10899 10896 10894 10893 10891 10889 10886 10883 10880 10877 10874 10872 10870 10868 10866 10864 10861 10858 10855 10853 10850 10847 10843 10840 10837 10834 10832 10830 10828 10826 10824 10822 10819 10815 10812
10903 10902 10900 10898 10897 10897 10896 10894 10892 10890 10888 10886 10884 10881 10878 10875 10872 10869 10867 10865 10863 10860 10858 10855 10852 10849 10847 10844 10841 10837 10834 10831 10828 10826 10824 10822 10819 10817 10814 10812 10808 10805
10898 10897 10896 10894 10892 10890 10889 10888 10887 10885 10883 10881 10878 10876 10874 10870 10867 10865 10862 10859 10856 10854 10852 10850 10847 10843 10841 10839 10835 10831 10828 10825 10822 10819 10817 10814 10812 10809 10806 10804 10800 10797
10892 10891 10890 10890 10889 10886 10884 10882 10880 10879 10877 10875 10872 10870 10868 10865 10862 10860 10858 10854 10851 10848 10846 10844 10841 10838 10835 10833 10830 10826 10822 10819 10816 10812 10810 10807 10805 10802 10798 10795 10792 10789
10885 10884 10883 10883 10883 10882 10880 10878 10876 10874 10872 10869 10867 10865 10862 10859 10856 10855 10853 10850 10846 10843 10840 10837 10834 10831 10829 10827 10824 10821 10817 10813 10809 10806 10803 10800 10798 10795 10791 10788 10784 10781
10879 10878 10877 10876 10876 10876 10875 10873 10871 10869 10867 10864 10862 10860 10857 10854 10851 10849 10847 10845 10842 10838 10834 10830 10827 10824 10822 10820 10819 10815 10811 10807 10803 10799 10796 10793 10790 10787 10784 10780 10777 10773
10873 10872 10872 10871 10870 10869 10868 10867 10865 10863 10861 10859 10857 10855 10852 10848 10846 10844 10841 10839 10836 10832 10827 10823 10820 10817 10814 10813 10812 10809 10804 10800 10795 10791 10788 10785 10781 10778 10775 10772 10769 10766
10867 10867 10866 10865 10865 10863 10861 10859 10857 10855 10853 10852 10851 10849 10846 10842 10840 10838 10835 10832 10830 10826 10820 10815 10813 10811 10808 10806 10804 10802 10798 10792 10787 10783 10780 10777 10773 10771 10768 10764 10762 10759
10861 10861 10860 10860 10859 10857 10855 10852 10850 10848 10845 10844 10843 10842 10840 10836 10832 10830 10828 10825 10822 10820 10816 10812 10809 10806 10801 10798 10797 10794 10791 10785 10780 10776 10773 10769 10766 10763 10760 10757 10754 10751
10854 10854 10853 10853 10852 10851 10848 10846 10843 10841 10839 10837 10835 10833 10833 10830 10825 10822 10821 10818 10814 10812 10810 10806 10803 10799 10795 10791 10789 10787 10783 10779 10774 10768 10765 10763 10760 10756 10753 10750 10747 10743
10846 10847 10846 10845 10844 10843 10841 10839 10837 10834 10832 10830 10827 10825 10825 10823 10819 10815 10814 10813 10809 10806 10803 10801 10797 10794 10789 10786 10783 10779 10777 10774 10768 10762 10758 10757 10754 10749 10746 10743 10740 10736
10837 10838 10838 10837 10836 10834 10833 10831 10829 10827 10825 10823 10820 10817 10816 10816 10814 10808 10805 10805 10804 10803 10802 10799 10795 10789 10784 10779 10775 10772 10770 10769 10765 10760 10755 10751 10747 10743 10739 10736 10732 10729
10828 10830 10830 10829 10828 10826 10825 10823 10821 10819 10817 10815 10812 10810 10808 10808 10807 10803 10797 10796 10797 10797 10795 10791 10785 10780 10777 10772 10767 10764 10763 10762 10759 10756 10752 10749 10744 10736 10731 10727 10724 10721